This is the latest recevied weather packets stored in our database for station/object DB0ADS-6. If no packets are shown the sender has not sent any weather packets the latest 10 day(s).
| Time | Temp. | Humidity | Pressure | Rain* | Wind** | Luminosity | Snow |
|---|---|---|---|---|---|---|---|
| 1777633274 | 17.78° C | 35% | 1026.2 hPa | 0 mm | - | - | - |
| 1777632951 | 17.78° C | 35% | 1026.2 hPa | 0 mm | - | - | - |
| 1777632649 | 17.22° C | 34% | 1026.3 hPa | 0 mm | - | - | - |
| 1777632347 | 17.22° C | 35% | 1026.2 hPa | 0 mm | - | - | - |
| 1777632047 | 17.22° C | 35% | 1026.4 hPa | 0 mm | - | - | - |
| 1777631744 | 17.22° C | 35% | 1026.4 hPa | 0 mm | - | - | - |
| 1777631443 | 17.22° C | 34% | 1026.5 hPa | 0 mm | - | - | - |
| 1777631141 | 17.22° C | 36% | 1026.5 hPa | 0 mm | - | - | - |
| 1777630842 | 16.67° C | 35% | 1026.5 hPa | 0 mm | - | - | - |
| 1777630537 | 16.67° C | 35% | 1026.6 hPa | 0 mm | - | - | - |
| 1777630235 | 16.67° C | 35% | 1026.6 hPa | 0 mm | - | - | - |
| 1777629954 | 16.67° C | 35% | 1026.7 hPa | 0 mm | - | - | - |
| 1777629632 | 16.67° C | 36% | 1026.7 hPa | 0 mm | - | - | - |
| 1777629331 | 16.11° C | 35% | 1026.7 hPa | 0 mm | - | - | - |
| 1777629029 | 16.11° C | 35% | 1026.8 hPa | 0 mm | - | - | - |
| 1777628727 | 16.11° C | 35% | 1026.8 hPa | 0 mm | - | - | - |
| 1777628426 | 15.56° C | 37% | 1026.8 hPa | 0 mm | - | - | - |
| 1777628124 | 16.11° C | 38% | 1026.8 hPa | 0 mm | - | - | - |
| 1777627822 | 15.56° C | 36% | 1026.9 hPa | 0 mm | - | - | - |
| 1777627520 | 15.56° C | 38% | 1026.7 hPa | 0 mm | - | - | - |
| 1777627218 | 15.56° C | 38% | 1026.8 hPa | 0 mm | - | - | - |
| 1777626916 | 15° C | 38% | 1026.8 hPa | 0 mm | - | - | - |
| 1777626675 | 15° C | 39% | 1026.8 hPa | 0 mm | - | - | - |
| 1777626373 | 15° C | 40% | 1026.8 hPa | 0 mm | - | - | - |
| 1777626072 | 15° C | 39% | 1026.8 hPa | 0 mm | - | - | - |
* Rain latest hour (hover to see other rain measurements)
** Current wind speed in m/s (hover to see current wind gust speed)